Location: Ertinghausen
(51.6624°N, 9.7874°E)
Time: 14:32:58
(UTC+00:00)

CZ-2C R/B - Pass Details

Date: 13 August 2024
Orbit: 703 x 903 km, 98.2° (Epoch: 14 September)

Event Time Altitude Azimuth Distance (km) Brightness Sun altitude
Rises 03:17:53 0° 3° (N) 3,180 6.8 -7.0°
Reaches altitude 10° 03:20:52 10° 344° (NNW) 2,284 5.7 -6.6°
Maximum altitude 03:23:58 17° 305° (NW) 1,891 4.8 -6.2°
Drops below altitude 10° 03:27:09 10° 267° (W) 2,352 5.0 -5.8°
Enters shadow 03:28:41 - 256° (WSW) 2,787 5.3 -5.5°
